timestamp,wind_dir_avg,wind_spd_avg,wind_spd_max_dir,wind_spd_gust,battery_voltage,lat,long
2022-10-31 00:04:00+00:00,232.0,6.28,240.0,7.27,12.49,47.59359,-54.27349
2022-10-31 00:14:00+00:00,237.0,5.13,249.0,5.96,12.49,47.59359,-54.27349
2022-10-31 00:24:00+00:00,256.0,4.65,257.0,5.2,12.49,47.59359,-54.27349
2022-10-31 00:34:00+00:00,262.0,4.88,261.0,5.44,12.49,47.59359,-54.27349
2022-10-31 00:44:00+00:00,252.0,5.12,250.0,5.9,12.49,47.59359,-54.27349
2022-10-31 00:54:00+00:00,260.0,5.01,253.0,5.92,12.49,47.59359,-54.27349
2022-10-31 01:04:00+00:00,263.0,4.68,262.0,5.08,12.49,47.59359,-54.27349
2022-10-31 01:14:00+00:00,265.0,5.89,256.0,7.07,12.41,47.59359,-54.27349
2022-10-31 01:24:00+00:00,278.0,7.71,275.0,9.0,12.41,47.59359,-54.27349
2022-10-31 01:34:00+00:00,281.0,5.48,273.0,6.43,12.41,47.59359,-54.27349
2022-10-31 01:44:00+00:00,281.0,6.58,278.0,7.76,12.41,47.59359,-54.27349
2022-10-31 01:54:00+00:00,273.0,5.33,274.0,6.3,12.41,47.59359,-54.27349
2022-10-31 02:04:00+00:00,259.0,4.37,260.0,4.91,12.41,47.59359,-54.27349
2022-10-31 02:14:00+00:00,249.0,6.05,249.0,7.64,12.41,47.59359,-54.27349
2022-10-31 02:24:00+00:00,268.0,5.0,274.0,5.79,12.41,47.59359,-54.27349
2022-10-31 02:34:00+00:00,254.0,5.65,253.0,6.52,12.41,47.59359,-54.27349
2022-10-31 02:44:00+00:00,256.0,6.37,260.0,7.09,12.41,47.59359,-54.27349
2022-10-31 02:54:00+00:00,268.0,7.62,268.0,9.21,12.41,47.59359,-54.27349
2022-10-31 03:04:00+00:00,267.0,7.36,268.0,8.64,12.41,47.59359,-54.27349
2022-10-31 03:14:00+00:00,281.0,7.1,287.0,9.06,12.41,47.59359,-54.27349
2022-10-31 03:24:00+00:00,255.0,6.36,251.0,7.26,12.41,47.59359,-54.27349
2022-10-31 03:34:00+00:00,273.0,4.98,272.0,6.13,12.41,47.59359,-54.27349
2022-10-31 03:44:00+00:00,275.0,5.19,274.0,5.84,12.41,47.59359,-54.27349
2022-10-31 03:54:00+00:00,275.0,5.22,272.0,5.59,12.41,47.59359,-54.27349
2022-10-31 04:04:00+00:00,288.0,4.7,292.0,5.73,12.41,47.59359,-54.27349
2022-10-31 04:14:00+00:00,269.0,4.27,263.0,5.27,12.41,47.59359,-54.27349
2022-10-31 04:24:00+00:00,288.0,4.61,292.0,5.0,12.41,47.59359,-54.27349
2022-10-31 04:34:00+00:00,270.0,3.79,271.0,4.11,12.41,47.59359,-54.27349
2022-10-31 04:44:00+00:00,238.0,3.93,236.0,4.53,12.41,47.59359,-54.27349
2022-10-31 04:54:00+00:00,258.0,3.67,253.0,4.19,12.41,47.59359,-54.27349
2022-10-31 05:04:00+00:00,252.0,4.34,246.0,4.77,12.41,47.59359,-54.27349
2022-10-31 05:14:00+00:00,260.0,4.84,260.0,5.43,12.41,47.59359,-54.27349
2022-10-31 05:24:00+00:00,257.0,4.36,255.0,4.87,12.41,47.59359,-54.27349
2022-10-31 05:34:00+00:00,259.0,3.94,258.0,4.39,12.41,47.59359,-54.27349
2022-10-31 05:44:00+00:00,241.0,4.25,242.0,4.49,12.41,47.59359,-54.27349
2022-10-31 05:54:00+00:00,241.0,3.82,243.0,4.13,12.41,47.59359,-54.27349
2022-10-31 06:04:00+00:00,248.0,3.36,248.0,3.75,12.41,47.59359,-54.27349
2022-10-31 06:14:00+00:00,234.0,3.84,232.0,4.22,12.33,47.59359,-54.27349
2022-10-31 06:24:00+00:00,283.0,3.48,276.0,4.13,12.33,47.59359,-54.27349
2022-10-31 06:34:00+00:00,317.0,2.2,314.0,2.73,12.33,47.59359,-54.27349
2022-10-31 06:44:00+00:00,291.0,0.8,268.0,0.94,12.33,47.59359,-54.27349
2022-10-31 06:54:00+00:00,4.0,2.21,3.0,2.63,12.33,47.59359,-54.27349
2022-10-31 07:04:00+00:00,4.0,2.17,1.0,3.07,12.33,47.59359,-54.27349
2022-10-31 07:14:01+00:00,0.0,1.93,354.0,2.62,12.33,47.59359,-54.27349
2022-10-31 07:24:01+00:00,70.0,1.2,51.0,1.62,12.33,47.59359,-54.27349
2022-10-31 07:34:01+00:00,324.0,2.77,322.0,3.88,12.33,47.59359,-54.27349
2022-10-31 07:44:01+00:00,257.0,3.19,262.0,3.58,12.33,47.59359,-54.27349
2022-10-31 07:54:01+00:00,275.0,4.09,283.0,4.67,12.33,47.59359,-54.27349
2022-10-31 08:04:01+00:00,233.0,3.83,237.0,4.65,12.33,47.59359,-54.27349
2022-10-31 08:14:01+00:00,247.0,4.77,244.0,5.78,12.25,47.59359,-54.27349
2022-10-31 08:24:01+00:00,244.0,4.91,244.0,5.39,12.25,47.59359,-54.27349
2022-10-31 08:34:01+00:00,277.0,4.98,282.0,6.12,12.25,47.59359,-54.27349
2022-10-31 08:44:01+00:00,272.0,4.66,271.0,5.43,12.25,47.59359,-54.27349
2022-10-31 08:54:01+00:00,261.0,4.89,255.0,5.64,12.25,47.59359,-54.27349
2022-10-31 09:04:01+00:00,259.0,5.86,259.0,6.87,12.25,47.59359,-54.27349
2022-10-31 09:14:01+00:00,256.0,5.06,252.0,5.93,12.25,47.59359,-54.27349
2022-10-31 09:24:01+00:00,251.0,3.87,253.0,4.6,12.25,47.59359,-54.27349
2022-10-31 09:34:01+00:00,258.0,4.98,258.0,5.51,12.25,47.59359,-54.27349
2022-10-31 09:44:01+00:00,257.0,5.14,262.0,5.87,12.25,47.59359,-54.27349
2022-10-31 09:54:01+00:00,240.0,4.51,228.0,5.21,12.25,47.59359,-54.27349
2022-10-31 10:04:01+00:00,256.0,3.88,263.0,4.52,12.25,47.59359,-54.27349
2022-10-31 10:14:01+00:00,242.0,4.74,235.0,5.21,12.25,47.59359,-54.27349
2022-10-31 10:24:01+00:00,260.0,3.99,266.0,4.9,12.25,47.59359,-54.27349
2022-10-31 10:34:01+00:00,252.0,3.9,249.0,4.67,12.25,47.59359,-54.27349
2022-10-31 10:44:01+00:00,281.0,5.05,282.0,5.96,12.25,47.59359,-54.27349
2022-10-31 10:54:01+00:00,265.0,6.49,263.0,8.22,12.25,47.59359,-54.27349
2022-10-31 11:04:01+00:00,274.0,8.86,275.0,9.69,12.25,47.59359,-54.27349
2022-10-31 11:14:00+00:00,278.0,7.14,277.0,8.49,13.84,47.59359,-54.27349
2022-10-31 11:24:00+00:00,273.0,8.16,274.0,9.13,13.84,47.59359,-54.27349
2022-10-31 11:34:00+00:00,274.0,7.68,272.0,8.58,13.84,47.59359,-54.27349
2022-10-31 11:44:00+00:00,270.0,8.25,272.0,9.35,13.84,47.59359,-54.27349
2022-10-31 11:54:00+00:00,264.0,8.61,261.0,9.78,13.84,47.59359,-54.27349
2022-10-31 12:04:00+00:00,264.0,7.68,261.0,8.86,13.84,47.59359,-54.27349
2022-10-31 12:14:00+00:00,247.0,6.3,245.0,6.88,14.4,47.59359,-54.27349
2022-10-31 12:24:00+00:00,231.0,5.42,230.0,6.04,14.4,47.59359,-54.27349
2022-10-31 12:34:00+00:00,236.0,6.69,236.0,7.4,14.4,47.59359,-54.27349
2022-10-31 12:44:00+00:00,234.0,5.86,231.0,6.76,14.4,47.59359,-54.27349
2022-10-31 12:54:00+00:00,234.0,7.15,213.0,8.92,14.4,47.59359,-54.27349
2022-10-31 13:04:00+00:00,226.0,7.1,226.0,8.18,14.4,47.59359,-54.27349
2022-10-31 13:14:00+00:00,237.0,7.51,245.0,8.92,13.92,47.59359,-54.27349
2022-10-31 13:24:00+00:00,235.0,9.46,234.0,11.26,13.92,47.59359,-54.27349
2022-10-31 13:34:00+00:00,238.0,9.76,240.0,11.11,13.92,47.59359,-54.27349
2022-10-31 13:44:00+00:00,231.0,6.98,226.0,8.33,13.92,47.59359,-54.27349
2022-10-31 13:54:00+00:00,239.0,8.48,242.0,10.09,13.92,47.59359,-54.27349
2022-10-31 14:04:00+00:00,239.0,9.02,240.0,11.18,13.92,47.59359,-54.27349
2022-10-31 14:14:00+00:00,234.0,8.97,240.0,10.5,14.4,47.59359,-54.27349
2022-10-31 14:24:00+00:00,242.0,10.26,245.0,11.31,14.4,47.59359,-54.27349
2022-10-31 14:34:00+00:00,243.0,9.65,245.0,11.71,14.4,47.59359,-54.27349
2022-10-31 14:44:00+00:00,241.0,9.23,243.0,10.22,14.4,47.59359,-54.27349
2022-10-31 14:54:00+00:00,229.0,10.21,228.0,12.43,14.4,47.59359,-54.27349
2022-10-31 15:04:00+00:00,233.0,8.84,234.0,11.36,14.4,47.59359,-54.27349
2022-10-31 15:14:00+00:00,230.0,8.5,230.0,9.83,13.84,47.59359,-54.27349
2022-10-31 15:24:00+00:00,231.0,9.18,230.0,11.17,13.84,47.59359,-54.27349
2022-10-31 15:34:00+00:00,231.0,10.57,233.0,12.23,13.84,47.59359,-54.27349
2022-10-31 15:44:00+00:00,228.0,9.4,221.0,10.84,13.84,47.59359,-54.27349
2022-10-31 15:54:00+00:00,226.0,9.52,217.0,11.82,13.84,47.59359,-54.27349
2022-10-31 16:04:00+00:00,217.0,10.96,215.0,12.49,13.84,47.59359,-54.27349
2022-10-31 16:14:00+00:00,220.0,10.51,223.0,11.97,14.48,47.59359,-54.27349
2022-10-31 16:24:00+00:00,213.0,11.57,213.0,12.74,14.48,47.59359,-54.27349
2022-10-31 16:34:00+00:00,217.0,8.25,228.0,10.02,14.48,47.59359,-54.27349
2022-10-31 16:44:00+00:00,221.0,9.56,220.0,10.89,14.48,47.59359,-54.27349
2022-10-31 16:54:00+00:00,219.0,8.55,224.0,12.05,14.48,47.59359,-54.27349
2022-10-31 17:04:00+00:00,227.0,8.05,226.0,9.82,14.48,47.59359,-54.27349
2022-10-31 17:14:00+00:00,218.0,7.3,224.0,9.07,14.32,47.59359,-54.27349
2022-10-31 17:24:00+00:00,226.0,9.69,228.0,12.13,14.32,47.59359,-54.27349
2022-10-31 17:34:00+00:00,226.0,9.93,228.0,11.29,14.32,47.59359,-54.27349
2022-10-31 17:44:00+00:00,230.0,10.5,229.0,11.96,14.32,47.59359,-54.27349
2022-10-31 17:54:00+00:00,230.0,12.43,231.0,14.83,14.32,47.59359,-54.27349
2022-10-31 18:04:00+00:00,232.0,10.89,235.0,12.66,14.32,47.59359,-54.27349
2022-10-31 18:14:00+00:00,230.0,12.32,225.0,14.98,13.84,47.59359,-54.27349
2022-10-31 18:24:00+00:00,229.0,10.78,233.0,13.02,13.84,47.59359,-54.27349
2022-10-31 18:34:00+00:00,233.0,11.34,238.0,13.19,13.84,47.59359,-54.27349
2022-10-31 18:44:00+00:00,230.0,10.76,228.0,12.48,13.84,47.59359,-54.27349
2022-10-31 18:54:00+00:00,230.0,10.63,233.0,13.61,13.84,47.59359,-54.27349
2022-10-31 19:04:00+00:00,232.0,11.1,231.0,13.27,13.84,47.59359,-54.27349
2022-10-31 19:14:00+00:00,233.0,10.83,233.0,12.25,13.84,47.59359,-54.27349
2022-10-31 19:24:00+00:00,230.0,10.75,235.0,12.98,13.84,47.59359,-54.27349
2022-10-31 19:34:00+00:00,230.0,11.19,232.0,13.45,13.84,47.59359,-54.27349
2022-10-31 19:44:00+00:00,237.0,9.28,237.0,11.46,13.84,47.59359,-54.27349
2022-10-31 19:54:00+00:00,256.0,12.08,261.0,14.57,13.84,47.59359,-54.27349
2022-10-31 20:04:00+00:00,258.0,11.93,258.0,13.85,13.84,47.59359,-54.27349
2022-10-31 20:14:00+00:00,256.0,13.22,258.0,15.97,13.21,47.59359,-54.27349
2022-10-31 20:24:00+00:00,254.0,14.14,254.0,16.22,13.21,47.59359,-54.27349
2022-10-31 20:34:00+00:00,254.0,10.28,259.0,12.03,13.21,47.59359,-54.27349
2022-10-31 20:44:00+00:00,246.0,9.66,246.0,11.17,13.21,47.59359,-54.27349
2022-10-31 20:54:00+00:00,250.0,10.35,253.0,11.79,13.21,47.59359,-54.27349
2022-10-31 21:04:00+00:00,252.0,7.9,251.0,9.31,13.21,47.59359,-54.27349
2022-10-31 21:14:00+00:00,247.0,7.12,253.0,9.15,12.65,47.59359,-54.27349
2022-10-31 21:24:00+00:00,244.0,9.55,239.0,11.62,12.65,47.59359,-54.27349
2022-10-31 21:34:00+00:00,251.0,8.31,256.0,9.59,12.65,47.59359,-54.27349
2022-10-31 21:44:00+00:00,252.0,8.57,251.0,9.51,12.65,47.59359,-54.27349
2022-10-31 21:54:00+00:00,257.0,6.68,248.0,8.89,12.65,47.59359,-54.27349
2022-10-31 22:04:00+00:00,261.0,8.32,264.0,9.3,12.65,47.59359,-54.27349
2022-10-31 22:14:00+00:00,259.0,7.58,257.0,9.4,12.49,47.59359,-54.27349
2022-10-31 22:24:00+00:00,265.0,6.81,266.0,8.6,12.49,47.59359,-54.27349
2022-10-31 22:34:00+00:00,264.0,6.49,267.0,8.99,12.49,47.59359,-54.27349
2022-10-31 22:44:00+00:00,256.0,6.65,258.0,9.06,12.49,47.59359,-54.27349
2022-10-31 22:54:00+00:00,265.0,6.69,267.0,9.13,12.49,47.59359,-54.27349
2022-10-31 23:04:00+00:00,257.0,5.68,258.0,8.49,12.49,47.59359,-54.27349
2022-10-31 23:14:00+00:00,256.0,5.54,263.0,8.46,12.49,47.59359,-54.27349
2022-10-31 23:24:00+00:00,257.0,6.58,261.0,8.46,12.49,47.59359,-54.27349
2022-10-31 23:34:00+00:00,257.0,5.7,265.0,7.61,12.49,47.59359,-54.27349
2022-10-31 23:44:00+00:00,269.0,5.81,272.0,7.84,12.49,47.59359,-54.27349
2022-10-31 23:54:00+00:00,266.0,5.94,264.0,7.59,12.49,47.59359,-54.27349
